Flag for Germany Weather past 2 weeks in Neumünster, Schleswig-Holstein, Germany

Now
32 °F

Overcast.


Feels Like: 32 °F
Forecast: 35 / 44 °F
Wind: 1 mph from West

Location: Itzehoe

Current Time: Feb 28, 2015 at 3:53:04 AM

Latest Report: Feb 28, 2015 at 3:00 AM


Visibility: 3 mi

Pressure: 30.07 "Hg

Humidity: 100%

Dew point: 32 °F

Location of NeumünsterLocation

Historic Weather in Neumünster — Graph

°F

Neumünster temperature yesterday

Maximum temperature yesterday: 45 °F (at 3:00 PM)
Minimum temperature yesterday: 34 °F (at 11:00 PM)
Average temperature yesterday: 40 °F

Past Weeks' High & Low Weather Summary

 TemperatureHumidityPressure
High46 °F (Feb 25, 3:00 PM)100% (Feb 13, 8:00 AM)30.67 "Hg (Feb 13, 8:00 AM)
Low28 °F (Feb 17, 8:00 AM)57% (Feb 19, 2:00 PM)29.23 "Hg (Feb 21, 11:00 AM)
Average37 °F88%29.93 "Hg
* Reported Feb 13 2:00 AM — Feb 28 2:00 AM, Neumünster, Weather by CustomWeather, © 2015

Note: Actual official high and low records may vary slightly from our data, if they occured in-between our weather recording intervals... More about our weather records

Advertising

Neumünster weather history for previous 24 hours

 ConditionsComfort  
Time TempWeatherWind HumidityBarometerVisibility
2:00 AM
Sat, Feb 28
31 °FClear.1 mph100%30.07 "Hg1 mi
12:00 AM34 °FOvercast.1 mph99%30.06 "Hg9 mi
11:00 PM
Fri, Feb 27
34 °FPassing clouds.1 mph96%30.06 "Hg13 mi
9:00 PM36 °FClear.2 mph91%30.04 "Hg15 mi
8:00 PM37 °FClear.2 mph88%30.02 "Hg16 mi
6:00 PM41 °FPassing clouds.5 mph80%29.97 "Hg19 mi
5:00 PM43 °FOvercast.7 mph75%29.95 "Hg19 mi
3:00 PM45 °FOvercast.6 mph79%29.90 "Hg17 mi
2:00 PM44 °FOvercast.5 mph79%29.89 "Hg22 mi
12:00 PM42 °FOvercast.6 mph90%29.86 "Hg17 mi
11:00 AM42 °FLow clouds.3 mph93%29.85 "Hg4 mi
9:00 AM40 °FLow clouds.2 mph98%29.82 "Hg2 mi
8:00 AM40 °FLow clouds.2 mph99%29.80 "Hg2 mi
6:00 AM39 °FLow clouds.2 mph98%29.79 "Hg2 mi
5:00 AM40 °FLow clouds.2 mph98%29.78 "Hg2 mi
4:00 AM40 °FLow clouds.3 mph97%29.79 "Hg2 mi
Weather by CustomWeather, © 2015

See weather overviewHow to use our weather pages